This is the latest recevied weather packets stored in our database for station/object KN6ETB-1. If no packets are shown the sender has not sent any weather packets the latest 10 day(s).
| Time | Temp. | Humidity | Pressure | Rain* | Wind** | Luminosity | Snow |
|---|---|---|---|---|---|---|---|
| 1777125494 | 11.67° C | 83% | 1007.4 hPa | 0 mm | - | 30 W/m² | - |
| 1777125189 | 11.67° C | 83% | 1007.5 hPa | 0 mm | - | 23 W/m² | - |
| 1777124885 | 11.11° C | 83% | 1007.4 hPa | 0 mm | - | 18 W/m² | - |
| 1777124581 | 11.11° C | 84% | 1007.2 hPa | 0 mm | - | 14 W/m² | - |
| 1777124277 | 11.11° C | 84% | 1007.2 hPa | 0 mm | - | 11 W/m² | - |
| 1777123975 | 11.11° C | 84% | 1007.2 hPa | 0 mm | - | 5 W/m² | - |
| 1777123670 | 11.11° C | 84% | 1007.1 hPa | 0 mm | - | 3 W/m² | - |
| 1777123367 | 11.11° C | 84% | 1007.2 hPa | 0 mm | - | 1 W/m² | - |
| 1777123063 | 11.11° C | 84% | 1007.2 hPa | 0 mm | - | 0 W/m² | - |
| 1777122759 | 11.11° C | 84% | 1007.2 hPa | 0 mm | - | 0 W/m² | - |
| 1777122456 | 11.11° C | 84% | 1007 hPa | 0 mm | - | 0 W/m² | - |
| 1777122152 | 11.11° C | 84% | 1007.2 hPa | 0 mm | - | 0 W/m² | - |
| 1777121848 | 11.11° C | 84% | 1007.1 hPa | 0 mm | - | 0 W/m² | - |
| 1777121545 | 11.11° C | 84% | 1006.9 hPa | 0 mm | - | 0 W/m² | - |
| 1777121241 | 11.11° C | 84% | 1007.1 hPa | 0 mm | - | 0 W/m² | - |
| 1777120938 | 11.11° C | 84% | 1007.1 hPa | 0 mm | - | 0 W/m² | - |
| 1777120634 | 11.11° C | 84% | 1006.9 hPa | 0 mm | - | 0 W/m² | - |
| 1777120330 | 11.11° C | 84% | 1007 hPa | 0 mm | - | 0 W/m² | - |
| 1777120030 | 11.11° C | 84% | 1007.2 hPa | 0 mm | - | 0 W/m² | - |
| 1777119727 | 11.11° C | 84% | 1007 hPa | 0 mm | - | 0 W/m² | - |
| 1777119421 | 11.11° C | 84% | 1007 hPa | 0 mm | - | 0 W/m² | - |
| 1777119116 | 11.11° C | 84% | 1007.1 hPa | 0 mm | - | 0 W/m² | - |
| 1777118812 | 11.11° C | 84% | 1006.9 hPa | 0 mm | - | 0 W/m² | - |
| 1777118509 | 11.11° C | 84% | 1006.9 hPa | 0 mm | - | 0 W/m² | - |
| 1777118204 | 11.11° C | 84% | 1007 hPa | 0 mm | - | 0 W/m² | - |
* Rain latest hour (hover to see other rain measurements)
** Current wind speed in m/s (hover to see current wind gust speed)